Location: Banios
(43.0451°N, 0.2335°E)
Time: 12:19:13
(UTC+00:00)

Cosmos 1655 Rocket - Pass Details

Date: 25 January 2021
Orbit: 971 x 1006 km, 83.0° (Epoch: 25 February)

Event Time Altitude Azimuth Distance (km) Brightness Sun altitude
Rises 06:32:32 0° 353° (N) 3,683 6.8 -9.1°
Reaches altitude 10° 06:35:04 10° 355° (N) 2,735 6.1 -8.6°
Maximum altitude 06:41:20 78° 81° (E) 1,007 4.3 -7.5°
Drops below altitude 10° 06:47:38 10° 169° (SSE) 2,739 6.8 -6.4°
Sets 06:50:09 0° 170° (S) 3,689 7.5 -6.0°
